TimeCST,TemperatureF,Dew PointF,Humidity,Sea Level PressureIn,VisibilityMPH,Wind Direction,Wind SpeedMPH,Gust SpeedMPH,PrecipitationIn,Events,Conditions,WindDirDegrees,DateUTC
12:55 AM,51.6,40.5,66,30.17,5.0,Calm,Calm,-,N/A,,Haze,0,2012-11-20 06:55:00
1:55 AM,50.4,40.8,70,30.17,5.0,Calm,Calm,-,N/A,,Haze,0,2012-11-20 07:55:00
2:55 AM,51.1,39.9,66,30.17,7.0,Calm,Calm,-,N/A,,Overcast,0,2012-11-20 08:55:00
3:55 AM,51.1,41.7,70,30.16,5.0,Calm,Calm,-,N/A,,Haze,0,2012-11-20 09:55:00
4:55 AM,51.4,42.1,70,30.16,7.0,Calm,Calm,-,N/A,,Overcast,0,2012-11-20 10:55:00
5:55 AM,49.8,40.5,70,30.16,7.0,WSW,3.5,-,N/A,,Mostly Cloudy,250,2012-11-20 11:55:00
6:22 AM,50.0,41.0,71,30.16,5.0,SSW,3.5,-,N/A,,Haze,210,2012-11-20 12:22:00
6:55 AM,51.3,41.4,69,30.17,7.0,SSW,3.5,-,N/A,,Overcast,200,2012-11-20 12:55:00
7:55 AM,53.8,42.6,66,30.17,7.0,SSW,3.5,-,N/A,,Overcast,210,2012-11-20 13:55:00
8:55 AM,55.8,42.8,62,30.16,4.0,SSW,4.6,-,N/A,,Haze,210,2012-11-20 14:55:00
9:15 AM,59.0,42.8,55,30.21,7.0,SW,8.1,-,N/A,,Mostly Cloudy,220,2012-11-20 15:15:00
9:55 AM,59.7,42.1,52,30.17,10.0,WSW,5.8,-,N/A,,Overcast,250,2012-11-20 15:55:00
10:55 AM,63.1,41.2,45,30.14,10.0,WSW,10.4,-,N/A,,Overcast,250,2012-11-20 16:55:00
11:55 AM,66.0,42.1,42,30.10,10.0,WSW,8.1,-,N/A,,Clear,240,2012-11-20 17:55:00
12:55 PM,67.8,43.7,42,30.08,10.0,WSW,10.4,-,N/A,,Clear,240,2012-11-20 18:55:00
1:55 PM,68.0,44.4,43,30.06,10.0,WSW,6.9,-,N/A,,Clear,240,2012-11-20 19:55:00
2:55 PM,67.5,45.9,46,30.06,10.0,West,6.9,-,N/A,,Clear,260,2012-11-20 20:55:00
3:55 PM,66.4,45.9,48,30.06,10.0,West,4.6,-,N/A,,Clear,270,2012-11-20 21:55:00
4:55 PM,60.1,46.2,60,30.07,10.0,Calm,Calm,-,N/A,,Clear,0,2012-11-20 22:55:00
5:55 PM,60.4,46.8,61,30.09,10.0,Calm,Calm,-,N/A,,Overcast,0,2012-11-20 23:55:00
6:55 PM,58.1,47.1,67,30.10,10.0,Calm,Calm,-,N/A,,Mostly Cloudy,0,2012-11-21 00:55:00
7:55 PM,58.1,47.5,68,30.11,10.0,Calm,Calm,-,N/A,,Overcast,0,2012-11-21 01:55:00
8:55 PM,55.8,47.7,74,30.12,10.0,West,4.6,-,N/A,,Partly Cloudy,270,2012-11-21 02:55:00
9:55 PM,56.7,48.2,73,30.12,10.0,Calm,Calm,-,N/A,,Partly Cloudy,0,2012-11-21 03:55:00
10:55 PM,55.8,47.5,74,30.14,10.0,Calm,Calm,-,N/A,,Clear,0,2012-11-21 04:55:00
11:55 PM,52.0,46.2,81,30.14,10.0,Calm,Calm,-,N/A,,Clear,0,2012-11-21 05:55:00